Time,TemperatureF,DewpointF,PressureIn,WindDirection,WindDirectionDegrees,WindSpeedMPH,WindSpeedGustMPH,Humidity,HourlyPrecipIn,Conditions,Clouds,dailyrainin,SoftwareType,DateUTC
2013-07-28 00:02:00,71.9,71.3,29.88,NNW,338,0.0,0.0,98,0.00,,---,0.00,VWS V14.01,2013-07-28 05:02:00,
2013-07-28 00:07:00,71.9,71.3,29.88,NNW,338,0.0,0.0,98,0.00,,---,0.00,VWS V14.01,2013-07-28 05:07:00,
2013-07-28 00:12:00,71.9,71.3,29.88,NNW,338,0.0,0.0,98,0.00,,---,0.00,VWS V14.01,2013-07-28 05:12:00,
2013-07-28 00:17:00,71.9,71.3,29.88,NNW,338,0.0,0.0,98,0.00,,---,0.00,VWS V14.01,2013-07-28 05:17:00,
2013-07-28 00:22:00,72.1,71.5,29.88,NNW,338,0.0,0.0,98,0.00,,---,0.00,VWS V14.01,2013-07-28 05:22:00,
2013-07-28 00:27:00,72.1,71.5,29.88,NNW,338,0.0,0.0,98,0.00,,---,0.00,VWS V14.01,2013-07-28 05:27:00,
2013-07-28 00:32:00,72.1,71.5,29.88,NNW,338,0.0,0.0,98,0.00,,---,0.00,VWS V14.01,2013-07-28 05:32:00,
2013-07-28 00:37:00,72.1,71.5,29.88,NNW,338,0.0,0.0,98,0.00,,---,0.00,VWS V14.01,2013-07-28 05:37:00,
2013-07-28 00:42:00,72.1,71.5,29.88,NNW,338,0.0,0.0,98,0.00,,---,0.00,VWS V14.01,2013-07-28 05:42:00,
2013-07-28 00:47:00,71.9,71.3,29.88,NNW,338,0.0,0.0,98,0.00,,---,0.00,VWS V14.01,2013-07-28 05:47:00,
2013-07-28 00:52:00,71.9,71.3,29.88,NNW,338,0.0,0.0,98,0.00,,---,0.00,VWS V14.01,2013-07-28 05:52:00,
2013-07-28 00:57:00,71.7,71.1,29.88,NNW,338,0.0,0.0,98,0.00,,---,0.00,VWS V14.01,2013-07-28 05:57:00,
2013-07-28 01:02:00,71.7,71.1,29.88,ESE,112,0.0,0.0,98,0.00,,---,0.00,VWS V14.01,2013-07-28 06:02:00,
2013-07-28 01:07:00,71.7,71.1,29.88,ESE,112,0.0,0.0,98,0.00,,---,0.00,VWS V14.01,2013-07-28 06:07:00,
2013-07-28 01:12:00,71.5,70.9,29.88,ESE,112,0.0,0.0,98,0.00,,---,0.00,VWS V14.01,2013-07-28 06:12:00,
2013-07-28 01:17:00,71.5,70.9,29.88,NNW,338,0.0,0.0,98,0.00,,---,0.00,VWS V14.01,2013-07-28 06:17:00,
2013-07-28 01:22:00,71.3,70.8,29.88,NNW,338,0.0,0.0,98,0.04,,---,0.04,VWS V14.01,2013-07-28 06:22:00,
2013-07-28 01:27:00,71.3,70.8,29.91,NNW,338,0.0,0.0,98,0.04,,---,0.04,VWS V14.01,2013-07-28 06:27:00,
2013-07-28 01:32:00,71.3,70.8,29.91,NNW,338,0.0,0.0,98,0.04,,---,0.04,VWS V14.01,2013-07-28 06:32:00,
2013-07-28 01:37:00,71.2,70.6,29.91,NNW,338,0.0,0.0,98,0.04,,---,0.04,VWS V14.01,2013-07-28 06:37:00,
2013-07-28 01:42:00,71.2,70.6,29.88,NNW,338,0.0,0.0,98,0.04,,---,0.04,VWS V14.01,2013-07-28 06:42:00,
2013-07-28 01:47:00,71.2,70.6,29.88,NNW,338,0.0,0.0,98,0.04,,---,0.04,VWS V14.01,2013-07-28 06:47:00,
2013-07-28 01:52:00,71.0,70.4,29.88,NNW,338,0.0,0.0,98,0.04,,---,0.04,VWS V14.01,2013-07-28 06:52:00,
2013-07-28 01:57:00,71.0,70.4,29.88,NNW,338,0.0,0.0,98,0.04,,---,0.04,VWS V14.01,2013-07-28 06:57:00,
2013-07-28 02:02:00,71.0,70.4,29.88,NNW,338,0.0,0.0,98,0.04,,---,0.04,VWS V14.01,2013-07-28 07:02:00,
2013-07-28 02:07:00,70.8,70.2,29.88,NNW,338,0.0,0.0,98,0.04,,---,0.04,VWS V14.01,2013-07-28 07:07:00,
2013-07-28 02:12:00,70.8,70.2,29.88,NNW,338,0.0,0.0,98,0.04,,---,0.04,VWS V14.01,2013-07-28 07:12:00,
2013-07-28 02:17:00,70.8,70.2,29.88,NNW,338,0.0,0.0,98,0.04,,---,0.04,VWS V14.01,2013-07-28 07:17:00,
2013-07-28 02:22:00,70.8,70.2,29.88,NNW,338,0.0,0.0,98,0.00,,---,0.04,VWS V14.01,2013-07-28 07:22:00,
2013-07-28 02:27:00,70.8,70.2,29.85,NNW,338,0.0,0.0,98,0.00,,---,0.04,VWS V14.01,2013-07-28 07:27:00,
2013-07-28 02:32:00,70.8,70.2,29.85,NNW,338,0.0,0.0,98,0.00,,---,0.04,VWS V14.01,2013-07-28 07:32:00,
2013-07-28 02:37:00,70.8,70.2,29.85,NNW,338,0.0,0.0,98,0.00,,---,0.04,VWS V14.01,2013-07-28 07:37:00,
2013-07-28 02:42:00,70.8,70.2,29.85,NNW,338,0.0,0.0,98,0.00,,---,0.04,VWS V14.01,2013-07-28 07:42:00,
2013-07-28 02:47:00,70.8,70.2,29.85,NNW,338,0.0,0.0,98,0.00,,---,0.04,VWS V14.01,2013-07-28 07:47:00,
2013-07-28 02:52:00,71.0,70.4,29.85,NW,315,0.0,0.0,98,0.00,,---,0.04,VWS V14.01,2013-07-28 07:52:00,
2013-07-28 02:57:00,71.0,70.4,29.85,NW,315,0.0,0.0,98,0.00,,---,0.04,VWS V14.01,2013-07-28 07:57:00,
2013-07-28 03:02:00,71.0,70.4,29.85,NW,315,0.0,0.0,98,0.00,,---,0.04,VWS V14.01,2013-07-28 08:02:00,
2013-07-28 03:07:00,70.8,70.2,29.85,NNW,338,0.0,0.0,98,0.00,,---,0.04,VWS V14.01,2013-07-28 08:07:00,
2013-07-28 03:12:00,70.8,70.2,29.88,NW,315,0.0,0.0,98,0.00,,---,0.04,VWS V14.01,2013-07-28 08:12:00,
2013-07-28 03:17:00,70.8,70.2,29.88,NW,315,0.0,0.0,98,0.00,,---,0.04,VWS V14.01,2013-07-28 08:17:00,
2013-07-28 03:22:00,70.8,70.2,29.88,NW,315,0.0,0.0,98,0.00,,---,0.04,VWS V14.01,2013-07-28 08:22:00,
2013-07-28 03:27:00,70.8,70.2,29.88,NW,315,0.0,0.0,98,0.00,,---,0.04,VWS V14.01,2013-07-28 08:27:00,
2013-07-28 03:33:00,70.8,70.2,29.88,WNW,292,0.0,0.0,98,0.00,,---,0.04,VWS V14.01,2013-07-28 08:33:00,
2013-07-28 03:38:00,70.8,70.2,29.88,WNW,292,0.0,0.0,98,0.00,,---,0.04,VWS V14.01,2013-07-28 08:38:00,
2013-07-28 03:43:00,70.8,70.2,29.88,WNW,292,0.0,0.0,98,0.00,,---,0.04,VWS V14.01,2013-07-28 08:43:00,
2013-07-28 03:48:00,70.8,70.2,29.88,WNW,292,0.0,0.0,98,0.00,,---,0.04,VWS V14.01,2013-07-28 08:48:00,
2013-07-28 03:53:00,70.8,70.2,29.88,NW,315,0.0,0.0,98,0.00,,---,0.04,VWS V14.01,2013-07-28 08:53:00,
2013-07-28 03:58:00,70.8,70.2,29.88,NW,315,0.0,0.0,98,0.00,,---,0.04,VWS V14.01,2013-07-28 08:58:00,
2013-07-28 04:03:00,70.8,70.2,29.88,NW,315,0.0,0.0,98,0.00,,---,0.04,VWS V14.01,2013-07-28 09:03:00,
2013-07-28 04:08:00,70.8,70.2,29.88,NW,315,0.0,0.0,98,0.00,,---,0.04,VWS V14.01,2013-07-28 09:08:00,
2013-07-28 04:13:00,70.8,70.2,29.88,NW,315,0.0,0.0,98,0.00,,---,0.04,VWS V14.01,2013-07-28 09:13:00,
2013-07-28 04:18:00,70.8,70.2,29.88,NW,315,0.0,0.0,98,0.00,,---,0.04,VWS V14.01,2013-07-28 09:18:00,
2013-07-28 04:23:00,71.2,70.6,29.88,NW,315,0.0,0.0,98,0.00,,---,0.04,VWS V14.01,2013-07-28 09:23:00,
2013-07-28 04:28:00,71.2,70.6,29.91,NW,315,0.0,0.0,98,0.00,,---,0.04,VWS V14.01,2013-07-28 09:28:00,
2013-07-28 04:33:00,71.2,70.6,29.91,NW,315,0.0,0.0,98,0.00,,---,0.04,VWS V14.01,2013-07-28 09:33:00,
2013-07-28 04:38:00,71.2,70.6,29.91,NW,315,0.0,0.0,98,0.00,,---,0.04,VWS V14.01,2013-07-28 09:38:00,
2013-07-28 04:43:00,71.2,70.6,29.88,ENE,68,0.0,0.0,98,0.00,,---,0.04,VWS V14.01,2013-07-28 09:43:00,
2013-07-28 04:48:00,71.2,70.6,29.88,ENE,68,0.0,0.0,98,0.00,,---,0.04,VWS V14.01,2013-07-28 09:48:00,
2013-07-28 04:53:00,71.2,70.6,29.88,ENE,68,0.0,0.0,98,0.00,,---,0.04,VWS V14.01,2013-07-28 09:53:00,
2013-07-28 04:58:00,71.2,70.6,29.88,ENE,68,0.0,0.0,98,0.00,,---,0.04,VWS V14.01,2013-07-28 09:58:00,
2013-07-28 05:03:00,71.2,70.6,29.88,ENE,68,0.0,0.0,98,0.00,,---,0.04,VWS V14.01,2013-07-28 10:03:00,
2013-07-28 05:08:00,71.3,70.8,29.88,WNW,292,0.0,0.0,98,0.00,,---,0.04,VWS V14.01,2013-07-28 10:08:00,
2013-07-28 05:13:00,71.3,70.8,29.88,WNW,292,0.0,0.0,98,0.00,,---,0.04,VWS V14.01,2013-07-28 10:13:00,
2013-07-28 05:18:00,71.3,70.8,29.88,WNW,292,0.0,0.0,98,0.00,,---,0.04,VWS V14.01,2013-07-28 10:18:00,
2013-07-28 05:23:00,71.3,70.8,29.88,WNW,292,0.0,0.0,98,0.00,,---,0.04,VWS V14.01,2013-07-28 10:23:00,
2013-07-28 05:28:00,71.5,70.9,29.91,NW,315,0.0,0.0,98,0.00,,---,0.04,VWS V14.01,2013-07-28 10:28:00,
2013-07-28 05:33:00,71.5,70.9,29.91,NW,315,0.0,0.0,98,0.00,,---,0.04,VWS V14.01,2013-07-28 10:33:00,
2013-07-28 05:38:00,71.5,70.9,29.91,NW,315,0.0,0.0,98,0.00,,---,0.04,VWS V14.01,2013-07-28 10:38:00,
2013-07-28 05:43:00,71.5,70.9,29.88,NW,315,0.0,0.0,98,0.00,,---,0.04,VWS V14.01,2013-07-28 10:43:00,
2013-07-28 05:48:00,71.5,70.9,29.88,NW,315,0.0,0.0,98,0.00,,---,0.04,VWS V14.01,2013-07-28 10:48:00,
2013-07-28 05:53:00,71.5,70.9,29.88,NW,315,0.0,0.0,98,0.00,,---,0.04,VWS V14.01,2013-07-28 10:53:00,
2013-07-28 05:58:00,71.5,70.9,29.91,NW,315,0.0,0.0,98,0.00,,---,0.04,VWS V14.01,2013-07-28 10:58:00,
2013-07-28 06:03:00,71.3,70.8,29.91,NW,315,0.0,0.0,98,0.00,,---,0.04,VWS V14.01,2013-07-28 11:03:00,
2013-07-28 06:08:00,71.3,70.8,29.91,WNW,292,0.0,0.0,98,0.00,,---,0.04,VWS V14.01,2013-07-28 11:08:00,
2013-07-28 06:13:00,71.3,70.8,29.88,NW,315,0.0,0.0,98,0.00,,---,0.04,VWS V14.01,2013-07-28 11:13:00,
2013-07-28 06:18:00,71.3,70.8,29.88,NW,315,0.0,0.0,98,0.00,,---,0.04,VWS V14.01,2013-07-28 11:18:00,
2013-07-28 06:23:00,71.3,70.8,29.88,NW,315,0.0,0.0,98,0.00,,---,0.04,VWS V14.01,2013-07-28 11:23:00,
2013-07-28 06:28:00,71.3,70.8,29.88,NW,315,0.0,0.0,98,0.00,,---,0.04,VWS V14.01,2013-07-28 11:28:00,
2013-07-28 06:33:00,71.3,70.8,29.91,WNW,292,0.0,0.0,98,0.00,,---,0.04,VWS V14.01,2013-07-28 11:33:00,
2013-07-28 06:38:00,71.3,70.8,29.91,NNW,338,0.0,0.0,98,0.00,,---,0.04,VWS V14.01,2013-07-28 11:38:00,
2013-07-28 06:43:00,71.3,70.8,29.91,NNW,338,0.0,0.0,98,0.00,,---,0.04,VWS V14.01,2013-07-28 11:43:00,
2013-07-28 06:48:00,71.3,70.8,29.91,NW,315,0.0,0.0,98,0.00,,---,0.04,VWS V14.01,2013-07-28 11:48:00,
2013-07-28 06:53:00,71.3,70.8,29.91,NW,315,0.0,0.0,98,0.00,,---,0.04,VWS V14.01,2013-07-28 11:53:00,
2013-07-28 06:58:00,71.3,70.8,29.91,NW,315,0.0,0.0,98,0.00,,---,0.04,VWS V14.01,2013-07-28 11:58:00,
2013-07-28 07:03:00,71.3,70.8,29.91,NW,315,0.0,0.0,98,0.00,,---,0.04,VWS V14.01,2013-07-28 12:03:00,
2013-07-28 07:08:00,71.3,70.8,29.91,NW,315,0.0,0.0,98,0.00,,---,0.04,VWS V14.01,2013-07-28 12:08:00,
2013-07-28 07:13:00,71.3,70.8,29.94,NW,315,0.0,0.0,98,0.00,,---,0.04,VWS V14.01,2013-07-28 12:13:00,
2013-07-28 07:18:00,71.3,70.8,29.94,NW,315,0.0,0.0,98,0.00,,---,0.04,VWS V14.01,2013-07-28 12:18:00,
2013-07-28 07:23:00,71.3,70.8,29.94,NW,315,0.0,0.0,98,0.00,,---,0.04,VWS V14.01,2013-07-28 12:23:00,
2013-07-28 07:28:00,71.3,70.8,29.91,NW,315,0.0,0.0,98,0.00,,---,0.04,VWS V14.01,2013-07-28 12:28:00,
2013-07-28 07:33:00,71.5,70.9,29.91,NW,315,0.0,0.0,98,0.00,,---,0.04,VWS V14.01,2013-07-28 12:33:00,
2013-07-28 07:38:00,71.5,70.9,29.91,ESE,112,0.0,0.0,98,0.00,,---,0.04,VWS V14.01,2013-07-28 12:38:00,
2013-07-28 07:43:00,71.7,71.1,29.91,NNW,338,0.0,0.0,98,0.00,,---,0.04,VWS V14.01,2013-07-28 12:43:00,
2013-07-28 07:48:00,71.9,71.3,29.91,ESE,112,0.0,0.0,98,0.00,,---,0.04,VWS V14.01,2013-07-28 12:48:00,
2013-07-28 16:06:00,86.8,69.8,29.50,WNW,292,0.0,0.0,57,0.00,,---,0.04,VWS V14.01,2013-07-28 21:06:00,
2013-07-28 16:07:00,86.8,69.8,29.50,WNW,292,3.4,3.4,57,0.00,,---,0.00,VWS V14.01,2013-07-28 21:07:00,
2013-07-28 16:08:00,86.8,69.2,29.88,WNW,292,2.2,3.4,56,0.00,,---,0.00,VWS V14.01,2013-07-28 21:08:00,
2013-07-28 16:09:00,86.8,68.7,29.88,North,0,2.5,3.4,55,0.00,,---,0.00,VWS V14.01,2013-07-28 21:09:00,
2013-07-28 16:10:00,86.8,69.2,29.88,NE,45,1.3,2.5,56,0.00,,---,0.00,VWS V14.01,2013-07-28 21:10:00,
2013-07-28 16:11:00,86.8,69.2,29.88,ENE,68,0.0,1.3,56,0.00,,---,0.00,VWS V14.01,2013-07-28 21:11:00,
2013-07-28 16:12:00,86.8,70.3,29.88,ENE,68,0.0,0.0,58,0.00,,---,0.00,VWS V14.01,2013-07-28 21:12:00,
2013-07-28 16:13:00,86.6,70.6,29.88,ENE,68,0.0,0.0,59,0.00,,---,0.00,VWS V14.01,2013-07-28 21:13:00,
2013-07-28 16:14:00,86.5,70.4,29.88,ENE,68,0.0,0.0,59,0.00,,---,0.00,VWS V14.01,2013-07-28 21:14:00,
2013-07-28 16:15:00,86.3,70.8,29.88,ENE,68,0.0,0.0,60,0.00,,---,0.00,VWS V14.01,2013-07-28 21:15:00,
2013-07-28 16:16:00,86.1,70.1,29.88,NE,45,0.0,0.0,59,0.00,,---,0.00,VWS V14.01,2013-07-28 21:16:00,
2013-07-28 16:17:00,86.1,70.1,29.88,NE,45,0.0,0.0,59,0.00,,---,0.00,VWS V14.01,2013-07-28 21:17:00,
2013-07-28 16:18:00,85.9,69.9,29.88,NE,45,0.0,0.0,59,0.00,,---,0.00,VWS V14.01,2013-07-28 21:18:00,
2013-07-28 16:19:00,85.9,69.9,29.88,NE,45,0.0,0.0,59,0.00,,---,0.00,VWS V14.01,2013-07-28 21:19:00,
2013-07-28 16:20:00,85.9,70.4,29.88,NE,45,0.0,0.0,60,0.00,,---,0.00,VWS V14.01,2013-07-28 21:20:00,
2013-07-28 16:21:00,85.9,70.4,29.88,NE,45,0.0,0.0,60,0.00,,---,0.04,VWS V14.01,2013-07-28 21:21:00,
2013-07-28 16:23:00,85.9,70.4,29.94,NNE,22,0.0,0.0,60,0.00,,---,0.00,VWS V14.01,2013-07-28 21:23:00,
2013-07-28 16:24:00,85.9,70.9,29.94,NNE,22,0.0,0.0,61,0.00,,---,0.00,VWS V14.01,2013-07-28 21:24:00,
2013-07-28 16:25:00,85.9,70.9,29.94,NNE,22,0.0,0.0,61,0.00,,---,0.00,VWS V14.01,2013-07-28 21:25:00,
2013-07-28 16:26:00,85.9,70.9,29.94,NNE,22,0.0,0.0,61,0.00,,---,0.00,VWS V14.01,2013-07-28 21:26:00,
2013-07-28 16:27:00,85.9,71.4,29.94,ESE,112,0.0,0.0,62,0.00,,---,0.00,VWS V14.01,2013-07-28 21:27:00,
2013-07-28 16:28:00,85.9,71.4,29.94,ENE,68,1.1,1.6,62,0.00,,---,0.00,VWS V14.01,2013-07-28 21:28:00,
2013-07-28 16:30:00,85.9,71.4,29.94,ENE,68,0.0,0.0,62,0.00,,---,0.00,VWS V14.01,2013-07-28 21:30:00,
2013-07-28 16:31:00,85.9,71.4,29.94,ENE,68,0.0,0.0,62,0.00,,---,0.00,VWS V14.01,2013-07-28 21:31:00,
2013-07-28 16:33:00,85.9,71.4,29.94,ESE,112,2.7,3.6,62,0.00,,---,0.00,VWS V14.01,2013-07-28 21:33:00,
2013-07-28 16:34:00,85.9,71.4,29.94,NNE,22,0.0,2.7,62,0.00,,---,0.00,VWS V14.01,2013-07-28 21:34:00,
2013-07-28 16:36:00,85.7,70.8,29.94,NNE,22,0.0,0.0,61,0.00,,---,0.00,VWS V14.01,2013-07-28 21:36:00,
2013-07-28 16:37:00,85.7,70.8,29.94,ENE,68,0.0,0.0,61,0.00,,---,0.00,VWS V14.01,2013-07-28 21:37:00,
2013-07-28 16:38:00,85.7,71.2,29.94,NE,45,0.0,0.0,62,0.00,,---,0.00,VWS V14.01,2013-07-28 21:38:00,
2013-07-28 16:39:00,85.6,71.1,29.94,NE,45,0.0,0.0,62,0.00,,---,0.00,VWS V14.01,2013-07-28 21:39:00,
2013-07-28 16:40:00,85.6,71.1,29.94,NE,45,0.0,0.0,62,0.00,,---,0.00,VWS V14.01,2013-07-28 21:40:00,
2013-07-28 16:41:00,85.6,71.1,29.94,NE,45,0.0,0.0,62,0.00,,---,0.00,VWS V14.01,2013-07-28 21:41:00,
2013-07-28 16:42:00,85.6,71.5,29.94,NE,45,0.0,0.0,63,0.00,,---,0.00,VWS V14.01,2013-07-28 21:42:00,
2013-07-28 16:43:00,85.6,71.5,29.94,NW,315,0.0,0.0,63,0.00,,---,0.00,VWS V14.01,2013-07-28 21:43:00,
2013-07-28 16:44:00,85.6,72.0,29.94,NW,315,0.0,0.0,64,0.00,,---,0.00,VWS V14.01,2013-07-28 21:44:00,
2013-07-28 16:45:00,85.4,71.8,29.94,WNW,292,0.0,0.0,64,0.00,,---,0.00,VWS V14.01,2013-07-28 21:45:00,
2013-07-28 16:46:00,85.4,71.4,29.94,NW,315,2.9,4.9,63,0.00,,---,0.00,VWS V14.01,2013-07-28 21:46:00,
2013-07-28 16:48:00,85.4,70.4,29.94,WNW,292,0.0,2.0,61,0.00,,---,0.00,VWS V14.01,2013-07-28 21:48:00,
2013-07-28 16:49:00,85.6,71.1,29.94,WNW,292,0.0,0.0,62,0.00,,---,0.00,VWS V14.01,2013-07-28 21:49:00,
2013-07-28 16:50:00,85.6,71.5,29.94,North,0,0.0,0.0,63,0.00,,---,0.00,VWS V14.01,2013-07-28 21:50:00,
2013-07-28 16:51:00,85.4,71.4,29.94,NNW,338,0.0,0.0,63,0.00,,---,0.00,VWS V14.01,2013-07-28 21:51:00,
2013-07-28 16:52:00,85.4,71.4,29.94,NW,315,0.0,0.0,63,0.00,,---,0.00,VWS V14.01,2013-07-28 21:52:00,
2013-07-28 16:53:00,85.4,70.9,29.94,NW,315,0.0,0.0,62,0.00,,---,0.00,VWS V14.01,2013-07-28 21:53:00,
2013-07-28 16:54:00,85.4,70.9,29.94,NE,45,0.0,0.0,62,0.00,,---,0.00,VWS V14.01,2013-07-28 21:54:00,
2013-07-28 16:55:00,85.6,71.1,29.94,North,0,0.0,0.0,62,0.00,,---,0.00,VWS V14.01,2013-07-28 21:55:00,
2013-07-28 16:56:00,85.6,71.1,29.94,North,0,0.0,0.0,62,0.00,,---,0.00,VWS V14.01,2013-07-28 21:56:00,
2013-07-28 16:57:00,85.6,71.1,29.94,North,0,0.0,0.0,62,0.00,,---,0.00,VWS V14.01,2013-07-28 21:57:00,
2013-07-28 16:58:00,85.6,71.5,29.94,WNW,292,0.0,0.0,63,0.00,,---,0.00,VWS V14.01,2013-07-28 21:58:00,
2013-07-28 16:59:00,85.4,71.4,29.94,WNW,292,0.0,0.0,63,0.00,,---,0.00,VWS V14.01,2013-07-28 21:59:00,
2013-07-28 17:00:00,85.4,71.4,29.94,NNE,22,0.0,0.0,63,0.00,,---,0.00,VWS V14.01,2013-07-28 22:00:00,
2013-07-28 17:01:00,85.2,71.7,29.94,NNE,22,0.0,0.0,64,0.00,,---,0.00,VWS V14.01,2013-07-28 22:01:00,
2013-07-28 17:02:00,85.2,71.7,29.94,NNE,22,0.0,0.0,64,0.00,,---,0.00,VWS V14.01,2013-07-28 22:02:00,
2013-07-28 17:03:00,85.0,71.5,29.94,NNE,22,0.0,0.0,64,0.00,,---,0.00,VWS V14.01,2013-07-28 22:03:00,
2013-07-28 17:04:00,85.0,71.5,29.94,NNE,22,0.0,0.0,64,0.00,,---,0.00,VWS V14.01,2013-07-28 22:04:00,
2013-07-28 17:05:00,84.7,71.2,29.94,NNE,22,0.0,0.0,64,0.00,,---,0.00,VWS V14.01,2013-07-28 22:05:00,
2013-07-28 17:06:00,84.7,71.6,29.94,WNW,292,0.0,0.0,65,0.00,,---,0.00,VWS V14.01,2013-07-28 22:06:00,
2013-07-28 17:07:00,84.5,71.4,29.94,WNW,292,0.0,0.0,65,0.00,,---,0.00,VWS V14.01,2013-07-28 22:07:00,
2013-07-28 17:08:00,84.5,71.9,29.94,WNW,292,0.0,0.0,66,0.00,,---,0.00,VWS V14.01,2013-07-28 22:08:00,
2013-07-28 17:09:00,84.3,71.7,29.94,WNW,292,0.0,0.0,66,0.00,,---,0.00,VWS V14.01,2013-07-28 22:09:00,
2013-07-28 17:10:00,84.3,71.7,29.94,WNW,292,0.0,0.0,66,0.00,,---,0.00,VWS V14.01,2013-07-28 22:10:00,
2013-07-28 17:11:00,83.9,70.9,29.94,NNE,22,0.0,0.0,65,0.00,,---,0.04,VWS V14.01,2013-07-28 22:11:00,
2013-07-28 17:12:00,83.9,70.9,29.94,NNE,22,0.0,0.0,65,0.00,,---,0.00,VWS V14.01,2013-07-28 22:12:00,
2013-07-28 17:14:00,83.8,71.2,29.94,NNE,22,0.0,0.0,66,0.00,,---,0.00,VWS V14.01,2013-07-28 22:14:00,
2013-07-28 17:15:00,83.6,71.0,29.94,NNE,22,0.0,0.0,66,0.00,,---,0.00,VWS V14.01,2013-07-28 22:15:00,
2013-07-28 17:16:00,83.6,71.0,29.94,NNE,22,0.0,0.0,66,0.00,,---,0.04,VWS V14.01,2013-07-28 22:16:00,
2013-07-28 17:17:00,83.6,71.0,29.94,NNE,22,0.0,0.0,66,0.00,,---,0.00,VWS V14.01,2013-07-28 22:17:00,
2013-07-28 17:18:00,83.6,71.0,29.94,NNE,22,0.0,0.0,66,0.00,,---,0.00,VWS V14.01,2013-07-28 22:18:00,
2013-07-28 17:19:00,83.6,71.0,29.94,NNE,22,0.0,0.0,66,0.00,,---,0.00,VWS V14.01,2013-07-28 22:19:00,
2013-07-28 17:20:00,83.4,70.9,29.94,NNE,22,0.0,0.0,66,0.00,,---,0.00,VWS V14.01,2013-07-28 22:20:00,
2013-07-28 17:21:00,83.4,71.3,29.94,NNE,22,0.0,0.0,67,0.00,,---,0.00,VWS V14.01,2013-07-28 22:21:00,
2013-07-28 17:22:00,83.4,71.3,29.94,NNE,22,0.0,0.0,67,0.00,,---,0.00,VWS V14.01,2013-07-28 22:22:00,
2013-07-28 17:23:00,83.4,71.3,29.94,NNE,22,0.0,0.0,67,0.00,,---,0.00,VWS V14.01,2013-07-28 22:23:00,
2013-07-28 17:24:00,83.4,71.7,29.94,NE,45,0.0,0.0,68,0.00,,---,0.00,VWS V14.01,2013-07-28 22:24:00,
2013-07-28 17:25:00,83.4,71.7,29.94,NE,45,0.0,0.0,68,0.00,,---,0.00,VWS V14.01,2013-07-28 22:25:00,
2013-07-28 17:26:00,83.2,72.0,29.94,NE,45,0.0,0.0,69,0.00,,---,0.00,VWS V14.01,2013-07-28 22:26:00,
2013-07-28 17:27:00,83.2,72.0,29.94,NE,45,0.0,0.0,69,0.00,,---,0.00,VWS V14.01,2013-07-28 22:27:00,
2013-07-28 17:28:00,83.2,72.0,29.94,NE,45,0.0,0.0,69,0.00,,---,0.00,VWS V14.01,2013-07-28 22:28:00,
2013-07-28 17:30:00,83.0,72.2,29.94,NE,45,0.0,0.0,70,0.00,,---,0.00,VWS V14.01,2013-07-28 22:30:00,
2013-07-28 17:31:00,82.9,72.1,29.94,NE,45,0.0,0.0,70,0.00,,---,0.00,VWS V14.01,2013-07-28 22:31:00,
2013-07-28 17:32:00,82.9,72.1,29.94,NE,45,0.0,0.0,70,0.00,,---,0.00,VWS V14.01,2013-07-28 22:32:00,
2013-07-28 17:33:00,82.9,72.1,29.94,NE,45,0.0,0.0,70,0.00,,---,0.00,VWS V14.01,2013-07-28 22:33:00,
2013-07-28 17:34:00,82.7,71.9,29.94,NE,45,0.0,0.0,70,0.00,,---,0.00,VWS V14.01,2013-07-28 22:34:00,
2013-07-28 17:35:00,82.7,71.9,29.94,NE,45,0.0,0.0,70,0.00,,---,0.00,VWS V14.01,2013-07-28 22:35:00,
2013-07-28 17:36:00,82.5,71.7,29.94,NE,45,0.0,0.0,70,0.00,,---,0.00,VWS V14.01,2013-07-28 22:36:00,
2013-07-28 17:37:00,82.5,71.7,29.94,NE,45,0.0,0.0,70,0.00,,---,0.00,VWS V14.01,2013-07-28 22:37:00,
2013-07-28 17:38:00,82.5,71.7,29.94,NE,45,0.0,0.0,70,0.00,,---,0.00,VWS V14.01,2013-07-28 22:38:00,
2013-07-28 17:39:00,82.3,71.6,29.94,NE,45,0.0,0.0,70,0.00,,---,0.00,VWS V14.01,2013-07-28 22:39:00,
2013-07-28 17:40:00,82.3,71.6,29.94,NE,45,0.0,0.0,70,0.00,,---,0.00,VWS V14.01,2013-07-28 22:40:00,
2013-07-28 17:41:00,82.3,71.6,29.94,NE,45,0.0,0.0,70,0.00,,---,0.00,VWS V14.01,2013-07-28 22:41:00,
2013-07-28 17:42:00,82.3,71.6,29.94,NE,45,0.0,0.0,70,0.00,,---,0.00,VWS V14.01,2013-07-28 22:42:00,
2013-07-28 17:43:00,82.3,72.0,29.94,NE,45,0.0,0.0,71,0.00,,---,0.00,VWS V14.01,2013-07-28 22:43:00,
2013-07-28 17:44:00,82.1,71.8,29.94,NE,45,0.0,0.0,71,0.00,,---,0.00,VWS V14.01,2013-07-28 22:44:00,
2013-07-28 17:45:00,82.1,72.2,29.94,NE,45,0.0,0.0,72,0.00,,---,0.00,VWS V14.01,2013-07-28 22:45:00,
2013-07-28 17:46:00,82.1,72.2,29.94,NE,45,0.0,0.0,72,0.00,,---,0.00,VWS V14.01,2013-07-28 22:46:00,
2013-07-28 17:48:00,82.1,72.2,29.94,NE,45,0.0,0.0,72,0.00,,---,0.00,VWS V14.01,2013-07-28 22:48:00,
2013-07-28 17:50:00,82.1,72.6,29.94,NE,45,0.0,0.0,73,0.00,,---,0.00,VWS V14.01,2013-07-28 22:50:00,
2013-07-28 17:51:00,82.1,72.6,29.94,NE,45,0.0,0.0,73,0.00,,---,0.00,VWS V14.01,2013-07-28 22:51:00,
2013-07-28 17:52:00,82.1,72.6,29.94,NE,45,0.0,0.0,73,0.00,,---,0.00,VWS V14.01,2013-07-28 22:52:00,
2013-07-28 17:53:00,82.1,73.0,29.94,NE,45,0.0,0.0,74,0.00,,---,0.00,VWS V14.01,2013-07-28 22:53:00,
2013-07-28 17:54:00,82.1,73.0,29.94,NE,45,0.0,0.0,74,0.00,,---,0.00,VWS V14.01,2013-07-28 22:54:00,
2013-07-28 17:55:00,82.1,73.0,29.94,NE,45,0.0,0.0,74,0.00,,---,0.00,VWS V14.01,2013-07-28 22:55:00,
2013-07-28 17:56:00,82.1,73.0,29.94,NE,45,0.0,0.0,74,0.00,,---,0.00,VWS V14.01,2013-07-28 22:56:00,
2013-07-28 17:57:00,82.1,73.0,29.94,NE,45,0.0,0.0,74,0.00,,---,0.00,VWS V14.01,2013-07-28 22:57:00,
2013-07-28 17:58:00,82.1,73.4,29.94,NE,45,0.0,0.0,75,0.00,,---,0.00,VWS V14.01,2013-07-28 22:58:00,
2013-07-28 17:59:00,82.0,73.3,29.94,NE,45,0.0,0.0,75,0.00,,---,0.00,VWS V14.01,2013-07-28 22:59:00,
2013-07-28 18:00:00,82.0,73.3,29.94,NE,45,0.0,0.0,75,0.00,,---,0.00,VWS V14.01,2013-07-28 23:00:00,
2013-07-28 18:01:00,81.8,73.1,29.94,NE,45,0.0,0.0,75,0.00,,---,0.00,VWS V14.01,2013-07-28 23:01:00,
2013-07-28 18:04:00,81.8,73.1,29.94,NE,45,0.0,0.0,75,0.00,,---,0.00,VWS V14.01,2013-07-28 23:04:00,
2013-07-28 18:05:00,81.8,73.1,29.94,NE,45,0.0,0.0,75,0.00,,---,0.00,VWS V14.01,2013-07-28 23:05:00,
2013-07-28 18:06:00,81.8,73.1,29.94,NE,45,0.0,0.0,75,0.00,,---,0.00,VWS V14.01,2013-07-28 23:06:00,
2013-07-28 18:07:00,81.6,72.9,29.94,NE,45,0.0,0.0,75,0.00,,---,0.00,VWS V14.01,2013-07-28 23:07:00,
2013-07-28 18:08:00,81.6,72.9,29.94,NE,45,0.0,0.0,75,0.00,,---,0.00,VWS V14.01,2013-07-28 23:08:00,
2013-07-28 18:09:00,81.4,72.7,29.94,NE,45,0.0,0.0,75,0.00,,---,0.00,VWS V14.01,2013-07-28 23:09:00,
2013-07-28 18:10:00,81.4,72.7,29.94,NE,45,0.0,0.0,75,0.00,,---,0.00,VWS V14.01,2013-07-28 23:10:00,
2013-07-28 18:11:00,81.4,72.7,29.94,NE,45,0.0,0.0,75,0.00,,---,0.04,VWS V14.01,2013-07-28 23:11:00,
2013-07-28 18:12:00,81.4,72.7,29.94,NE,45,0.0,0.0,75,0.00,,---,0.00,VWS V14.01,2013-07-28 23:12:00,
2013-07-28 18:14:00,81.2,72.6,29.94,NE,45,0.0,0.0,75,0.00,,---,0.00,VWS V14.01,2013-07-28 23:14:00,
2013-07-28 18:15:00,81.2,72.6,29.94,NE,45,0.0,0.0,75,0.00,,---,0.00,VWS V14.01,2013-07-28 23:15:00,
2013-07-28 18:16:00,81.2,73.0,29.94,NE,45,0.0,0.0,76,0.00,,---,0.00,VWS V14.01,2013-07-28 23:16:00,
2013-07-28 18:17:00,81.2,73.0,29.94,NE,45,0.0,0.0,76,0.00,,---,0.00,VWS V14.01,2013-07-28 23:17:00,
2013-07-28 18:18:00,81.2,73.0,29.94,NE,45,0.0,0.0,76,0.00,,---,0.00,VWS V14.01,2013-07-28 23:18:00,
2013-07-28 18:20:00,81.1,72.8,29.94,NE,45,0.0,0.0,76,0.00,,---,0.00,VWS V14.01,2013-07-28 23:20:00,
2013-07-28 18:21:00,81.1,72.8,29.94,NE,45,0.0,0.0,76,0.00,,---,0.00,VWS V14.01,2013-07-28 23:21:00,
2013-07-28 18:23:00,81.1,72.8,29.94,NE,45,0.0,0.0,76,0.00,,---,0.00,VWS V14.01,2013-07-28 23:23:00,
2013-07-28 18:25:00,80.9,72.6,29.91,NE,45,0.0,0.0,76,0.00,,---,0.00,VWS V14.01,2013-07-28 23:25:00,
2013-07-28 18:27:00,80.9,73.0,29.91,NE,45,0.0,0.0,77,0.00,,---,0.00,VWS V14.01,2013-07-28 23:27:00,
2013-07-28 18:28:00,80.9,73.0,29.91,NE,45,0.0,0.0,77,0.00,,---,0.00,VWS V14.01,2013-07-28 23:28:00,
2013-07-28 18:30:00,80.9,73.0,29.91,NE,45,0.0,0.0,77,0.00,,---,0.00,VWS V14.01,2013-07-28 23:30:00,
2013-07-28 18:31:00,80.9,73.0,29.91,NE,45,0.0,0.0,77,0.00,,---,0.00,VWS V14.01,2013-07-28 23:31:00,
2013-07-28 18:32:00,80.9,73.0,29.91,NE,45,0.0,0.0,77,0.00,,---,0.00,VWS V14.01,2013-07-28 23:32:00,
2013-07-28 18:33:00,80.9,73.4,29.91,NE,45,0.0,0.0,78,0.00,,---,0.00,VWS V14.01,2013-07-28 23:33:00,
2013-07-28 18:35:00,80.7,73.2,29.91,NE,45,0.0,0.0,78,0.00,,---,0.00,VWS V14.01,2013-07-28 23:35:00,
2013-07-28 18:36:00,80.7,73.2,29.91,NE,45,0.0,0.0,78,0.00,,---,0.00,VWS V14.01,2013-07-28 23:36:00,
2013-07-28 18:37:00,80.7,73.2,29.91,NE,45,0.0,0.0,78,0.00,,---,0.00,VWS V14.01,2013-07-28 23:37:00,
2013-07-28 18:38:00,80.7,73.2,29.91,NE,45,0.0,0.0,78,0.00,,---,0.00,VWS V14.01,2013-07-28 23:38:00,
2013-07-28 18:39:00,80.7,73.2,29.94,NE,45,0.0,0.0,78,0.00,,---,0.00,VWS V14.01,2013-07-28 23:39:00,
2013-07-28 18:40:00,80.7,73.2,29.94,NE,45,0.0,0.0,78,0.00,,---,0.00,VWS V14.01,2013-07-28 23:40:00,
2013-07-28 18:41:00,80.5,73.0,29.94,NE,45,0.0,0.0,78,0.00,,---,0.00,VWS V14.01,2013-07-28 23:41:00,
2013-07-28 18:42:00,80.5,73.0,29.94,NE,45,0.0,0.0,78,0.00,,---,0.00,VWS V14.01,2013-07-28 23:42:00,
2013-07-28 18:43:00,80.5,73.0,29.94,NE,45,0.0,0.0,78,0.00,,---,0.00,VWS V14.01,2013-07-28 23:43:00,
2013-07-28 18:44:00,80.5,73.0,29.94,NE,45,0.0,0.0,78,0.00,,---,0.00,VWS V14.01,2013-07-28 23:44:00,
2013-07-28 18:46:00,80.5,73.4,29.94,NE,45,0.0,0.0,79,0.00,,---,0.00,VWS V14.01,2013-07-28 23:46:00,
2013-07-28 18:47:00,80.5,73.4,29.94,NE,45,0.0,0.0,79,0.00,,---,0.00,VWS V14.01,2013-07-28 23:47:00,
2013-07-28 18:48:00,80.5,73.4,29.94,NE,45,0.0,0.0,79,0.00,,---,0.00,VWS V14.01,2013-07-28 23:48:00,
2013-07-28 18:49:00,80.5,73.4,29.94,NE,45,0.0,0.0,79,0.00,,---,0.00,VWS V14.01,2013-07-28 23:49:00,
2013-07-28 18:50:00,80.5,73.4,29.94,NE,45,0.0,0.0,79,0.00,,---,0.00,VWS V14.01,2013-07-28 23:50:00,
2013-07-28 18:51:00,80.5,73.4,29.94,NE,45,0.0,0.0,79,0.00,,---,0.00,VWS V14.01,2013-07-28 23:51:00,
2013-07-28 18:52:00,80.5,73.4,29.94,NE,45,0.0,0.0,79,0.00,,---,0.00,VWS V14.01,2013-07-28 23:52:00,
2013-07-28 18:54:00,80.5,73.4,29.94,NE,45,0.0,0.0,79,0.00,,---,0.00,VWS V14.01,2013-07-28 23:54:00,
2013-07-28 18:55:00,80.5,73.8,29.94,NE,45,0.0,0.0,80,0.00,,---,0.00,VWS V14.01,2013-07-28 23:55:00,
2013-07-28 18:56:00,80.5,73.8,29.94,NE,45,0.0,0.0,80,0.00,,---,0.00,VWS V14.01,2013-07-28 23:56:00,
2013-07-28 18:57:00,80.5,73.8,29.94,NE,45,0.0,0.0,80,0.00,,---,0.00,VWS V14.01,2013-07-28 23:57:00,
2013-07-28 18:58:00,80.5,73.8,29.94,NE,45,0.0,0.0,80,0.00,,---,0.00,VWS V14.01,2013-07-28 23:58:00,
2013-07-28 18:59:00,80.5,73.8,29.94,NE,45,0.0,0.0,80,0.00,,---,0.00,VWS V14.01,2013-07-28 23:59:00,
2013-07-28 19:00:00,80.5,73.8,29.94,NE,45,0.0,0.0,80,0.00,,---,0.00,VWS V14.01,2013-07-29 00:00:00,
2013-07-28 19:02:00,80.5,73.8,29.94,NE,45,0.0,0.0,80,0.00,,---,0.00,VWS V14.01,2013-07-29 00:02:00,
2013-07-28 19:03:00,80.5,73.8,29.94,NE,45,0.0,0.0,80,0.00,,---,0.00,VWS V14.01,2013-07-29 00:03:00,
2013-07-28 19:05:00,80.5,73.8,29.94,NE,45,0.0,0.0,80,0.00,,---,0.00,VWS V14.01,2013-07-29 00:05:00,
2013-07-28 19:06:00,80.5,74.2,29.94,NE,45,0.0,0.0,81,0.00,,---,0.00,VWS V14.01,2013-07-29 00:06:00,
2013-07-28 19:07:00,80.7,74.3,29.94,NE,45,0.0,0.0,81,0.00,,---,0.00,VWS V14.01,2013-07-29 00:07:00,
2013-07-28 19:08:00,80.7,74.3,29.94,NE,45,0.0,0.0,81,0.00,,---,0.00,VWS V14.01,2013-07-29 00:08:00,
2013-07-28 19:09:00,80.7,74.3,29.94,NE,45,0.0,0.0,81,0.00,,---,0.00,VWS V14.01,2013-07-29 00:09:00,
2013-07-28 19:10:00,80.7,74.7,29.94,NE,45,0.0,0.0,82,0.00,,---,0.00,VWS V14.01,2013-07-29 00:10:00,
2013-07-28 19:12:00,80.7,74.7,29.94,NE,45,0.0,0.0,82,0.00,,---,0.00,VWS V14.01,2013-07-29 00:12:00,
2013-07-28 19:13:00,80.7,74.7,29.94,NE,45,0.0,0.0,82,0.00,,---,0.00,VWS V14.01,2013-07-29 00:13:00,
2013-07-28 19:14:00,80.7,74.7,29.94,NE,45,0.0,0.0,82,0.00,,---,0.00,VWS V14.01,2013-07-29 00:14:00,
2013-07-28 19:15:00,80.7,74.7,29.94,NE,45,0.0,0.0,82,0.00,,---,0.00,VWS V14.01,2013-07-29 00:15:00,
2013-07-28 19:16:00,80.7,74.7,29.94,NE,45,0.0,0.0,82,0.00,,---,0.00,VWS V14.01,2013-07-29 00:16:00,
2013-07-28 19:17:00,80.7,74.7,29.94,NE,45,0.0,0.0,82,0.00,,---,0.00,VWS V14.01,2013-07-29 00:17:00,
2013-07-28 19:18:00,80.7,74.7,29.94,NE,45,0.0,0.0,82,0.00,,---,0.00,VWS V14.01,2013-07-29 00:18:00,
2013-07-28 19:19:00,80.5,74.5,29.94,NE,45,0.0,0.0,82,0.00,,---,0.00,VWS V14.01,2013-07-29 00:19:00,
2013-07-28 19:20:00,80.5,74.5,29.94,NE,45,0.0,0.0,82,0.00,,---,0.00,VWS V14.01,2013-07-29 00:20:00,
2013-07-28 19:21:00,80.5,74.5,29.94,NE,45,0.0,0.0,82,0.00,,---,0.00,VWS V14.01,2013-07-29 00:21:00,
2013-07-28 19:22:00,80.5,74.5,29.94,NE,45,0.0,0.0,82,0.00,,---,0.00,VWS V14.01,2013-07-29 00:22:00,
2013-07-28 19:23:00,80.5,74.5,29.94,NE,45,0.0,0.0,82,0.00,,---,0.00,VWS V14.01,2013-07-29 00:23:00,
2013-07-28 19:24:00,80.5,74.5,29.94,NE,45,0.0,0.0,82,0.00,,---,0.00,VWS V14.01,2013-07-29 00:24:00,
2013-07-28 19:25:00,80.5,74.5,29.94,NE,45,0.0,0.0,82,0.00,,---,0.00,VWS V14.01,2013-07-29 00:25:00,
2013-07-28 19:26:00,80.5,74.5,29.94,NE,45,0.0,0.0,82,0.00,,---,0.00,VWS V14.01,2013-07-29 00:26:00,
2013-07-28 19:27:00,80.5,74.5,29.94,NE,45,0.0,0.0,82,0.00,,---,0.00,VWS V14.01,2013-07-29 00:27:00,
2013-07-28 19:28:00,80.5,74.5,29.94,NE,45,0.0,0.0,82,0.00,,---,0.00,VWS V14.01,2013-07-29 00:28:00,
2013-07-28 19:29:00,80.5,74.5,29.94,NE,45,0.0,0.0,82,0.00,,---,0.00,VWS V14.01,2013-07-29 00:29:00,
2013-07-28 19:30:00,80.5,74.5,29.94,NE,45,0.0,0.0,82,0.00,,---,0.00,VWS V14.01,2013-07-29 00:30:00,
2013-07-28 19:31:00,80.5,74.5,29.94,NE,45,0.0,0.0,82,0.00,,---,0.00,VWS V14.01,2013-07-29 00:31:00,
2013-07-28 19:32:00,80.3,74.3,29.94,NE,45,0.0,0.0,82,0.00,,---,0.00,VWS V14.01,2013-07-29 00:32:00,
2013-07-28 19:33:00,80.3,74.3,29.94,NE,45,0.0,0.0,82,0.00,,---,0.00,VWS V14.01,2013-07-29 00:33:00,
2013-07-28 19:34:00,80.3,74.3,29.94,NE,45,0.0,0.0,82,0.00,,---,0.00,VWS V14.01,2013-07-29 00:34:00,
2013-07-28 19:35:00,80.3,74.3,29.94,NE,45,0.0,0.0,82,0.00,,---,0.00,VWS V14.01,2013-07-29 00:35:00,
2013-07-28 19:36:00,80.3,74.3,29.94,NE,45,0.0,0.0,82,0.00,,---,0.00,VWS V14.01,2013-07-29 00:36:00,
2013-07-28 19:37:00,80.2,74.5,29.94,NE,45,0.0,0.0,83,0.00,,---,0.00,VWS V14.01,2013-07-29 00:37:00,
2013-07-28 19:38:00,80.2,74.5,29.94,NE,45,0.0,0.0,83,0.00,,---,0.00,VWS V14.01,2013-07-29 00:38:00,
2013-07-28 19:39:00,80.2,74.2,29.94,NE,45,0.0,0.0,82,0.00,,---,0.00,VWS V14.01,2013-07-29 00:39:00,
2013-07-28 19:40:00,80.2,74.2,29.94,NE,45,0.0,0.0,82,0.00,,---,0.00,VWS V14.01,2013-07-29 00:40:00,
2013-07-28 19:41:00,80.2,74.2,29.94,NE,45,0.0,0.0,82,0.00,,---,0.00,VWS V14.01,2013-07-29 00:41:00,
2013-07-28 19:42:00,80.0,74.4,29.94,NE,45,0.0,0.0,83,0.00,,---,0.00,VWS V14.01,2013-07-29 00:42:00,
2013-07-28 19:43:00,80.0,74.4,29.94,NE,45,0.0,0.0,83,0.00,,---,0.00,VWS V14.01,2013-07-29 00:43:00,
2013-07-28 19:44:00,80.0,74.4,29.94,NE,45,0.0,0.0,83,0.00,,---,0.00,VWS V14.01,2013-07-29 00:44:00,
2013-07-28 19:45:00,80.0,74.4,29.94,NE,45,0.0,0.0,83,0.00,,---,0.00,VWS V14.01,2013-07-29 00:45:00,
2013-07-28 19:46:00,79.8,74.2,29.94,NE,45,0.0,0.0,83,0.00,,---,0.00,VWS V14.01,2013-07-29 00:46:00,
2013-07-28 19:47:00,79.8,74.2,29.94,NE,45,0.0,0.0,83,0.00,,---,0.00,VWS V14.01,2013-07-29 00:47:00,
2013-07-28 19:48:00,79.8,74.5,29.94,NE,45,0.0,0.0,84,0.00,,---,0.00,VWS V14.01,2013-07-29 00:48:00,
2013-07-28 19:49:00,79.8,74.5,29.94,NE,45,0.0,0.0,84,0.00,,---,0.00,VWS V14.01,2013-07-29 00:49:00,
2013-07-28 19:50:00,79.6,74.4,29.94,NE,45,0.0,0.0,84,0.00,,---,0.00,VWS V14.01,2013-07-29 00:50:00,
2013-07-28 19:51:00,79.6,74.4,29.94,NE,45,0.0,0.0,84,0.00,,---,0.00,VWS V14.01,2013-07-29 00:51:00,
2013-07-28 19:52:00,79.6,74.4,29.94,NE,45,0.0,0.0,84,0.00,,---,0.00,VWS V14.01,2013-07-29 00:52:00,